www.pogodaiklimat.ru

Погода и климат >> Архив погоды >> Россия >> Камчатский край >> Козыревск


ПОГОДА в Козыревске

  • Прогноз погоды в Козыревске
  • Монитор погоды в Козыревске

АРХИВ ПОГОДЫ в Козыревске

Время (UTC), дата Ветер
(напр.,м/с)
 
Видим.   Явления Облачность Т
(С)
Тd
(С)
f
(%)
Тe
(С)
Тes
(С)
Комфортность P
(гПа)
Po
(гПа)
Тmin
(С)
Tmax
(С)
R
(мм)
R24
(мм)
S
(см)
21 14.03 штиль 0
{4}
50 км ясно -27.8 -31.9 68 -28 -26 1008.3 1002.7 -30.5 114
00 15.03 СЗ 1 50 км ясно -13.6 -20.1 58 -16 -9 1009.3 1004.0
03 15.03 С 1 50 км ясно -7.3 -20.1 35 -9 -3 1007.9 1002.7
06 15.03 СЗ 2 50 км ясно -6.1 -19.7 33 -10 -9 1007.8 1002.7
09 15.03 В 2
{3}
50 км ясно -14.4 -24.2 43 -19 -19 1009.3 1004.0 -4.6
12 15.03 штиль 0 50 км ясно -22.1 -26.1 70 -22 -22 1012.2 1006.7
15 15.03 Ю 1 50 км ясно -26.5 -30.4 70 -30 -30 1011.2 1005.3
18 15.03 штиль 0 50 км ясно -29.6 -33.2 71 -30 -30 1012.2 1006.7
21 15.03 ЮВ 1
{3}
50 км ясно -27.7 -32.4 64 -32 -30 опасность
обморожения
1013.5 1007.9 -31.0 112
00 16.03 З 1 50 км ясно -11.6 -24.0 35 -14 -7 1014.6 1009.3
03 16.03 ЮЗ 2 50 км ясно -5.8 -20.6 30 -9 -4 1013.2 1008.0
06 16.03 З 1 50 км 8/0
[Ci fib]
-5.4 -19.8 31 -7 -7 1013.2 1008.0
09 16.03 штиль 0
{4}
50 км 9/0
[Ci fib]
-13.4 -18.6 65 -13 -13 1014.6 1009.3 -3.9
12 16.03 Ю 1 20 км 6/0
[Ci fib]
-18.1 -22.1 71 -21 -21 1016.1 1010.7
15 16.03 Ю 1 н/о н/о -22.2 -25.6 74 -25 -25 1016.2 1010.7
18 16.03 штиль 0 50 км 5/0
[Ci fib]
-23.6 -26.8 75 -24 -24 1016.3 1010.7
21 16.03 штиль 0
{3}
50 км 5/0
[Ci fib]
-21.9 -25.8 71 -22 -21 1014.5 1009.0 -25.2 112
00 17.03 ЮЗ 2 50 км 6/0
[Ci fib]
-8.7 -18.5 45 -13 -10 1014.5 1009.3
03 17.03 ЮЗ 3 50 км 6/0
[Ci fib]
-3.5 -17.4 33 -8 -6 1010.4 1005.3
06 17.03 ЮЗ 1 50 км 5/0
[Ci fib]
-3.6 -16.5 36 -5 -4 1009.1 1004.0
09 17.03 ЮВ 1
{6}
50 км ясно -12.1 -16.8 68 -14 -14 1009.3 1004.0 -2.5
12 17.03 ЮВ 1 50 км ясно -13.7 -18.3 68 -16 -16 1008.0 1002.7
15 17.03 штиль 0 50 км ясно -17.3 -20.2 78 -17 -17 1008.1 1002.7
18 17.03 ЮВ 1 50 км ясно -19.5 -22.2 79 -22 -22 1008.1 1002.7
21 17.03 ЮВ 1
{2}
50 км 5/0
[Ci fib]
-19.5 -22.9 74 -22 -21 1006.3 1000.9 -21.6 112
00 18.03 Ю 2 50 км 8/0
[Ci fib]
-6.5 -15.2 50 -10 -9 1006.4 1001.3
03 18.03 Ю 2 50 км 10/0
[Ac As]
-3.9 -14.3 44 -7 -7 1005.1 1000.0
06 18.03 СВ 1 50 км 6/0
[Ci fib]
-4.2 -15.8 40 -6 -5 1005.1 1000.0
09 18.03 В 1
{6}
50 км 8/0
[Ci fib]
-10.4 -17.3 57 -13 -13 1006.5 1001.3 -2.9
12 18.03 З 1 20 км 8/0
[Ci fib]
-15.1 -17.0 85 -18 -18 1006.6 1001.3
15 18.03 ЮВ 1 20 км 6/0
[Ci fib]
-17.9 -20.8 78 -21 -21 1006.7 1001.3
18 18.03 ЮВ 1 50 км 8/0
[Ci fib]
-19.8 -21.9 83 -23 -23 1005.4 1000.0
21 18.03 СЗ 2
{2}
50 км 8/0
[Ac trans]
-16.0 -18.9 78 -21 -20 1004.2 998.9 -20.1 112
00 19.03 СЗ 2 50 км 6/0
[Ac trans]
-10.7 -16.9 60 -15 -13 1005.2 1000.0
03 19.03 З 2 50 км ясно -5.8 -13.2 56 -10 -4 1005.1 1000.0
06 19.03 С 4 50 км 3/0
[Ci fib]
-5.8 -14.3 51 -12 -11 1006.4 1001.3
09 19.03 С 2
{7}
50 км 5/0
[Ci fib]
-11.3 -16.0 68 -16 -16 1007.9 1002.7 -4.2
12 19.03 С 4 50 км 4/0
[Ci fib]
-14.1 -20.0 61 -22 -22 1008.0 1002.7
15 19.03 С 4
{10}
20 км 9/0
[Ci fib]
-14.7 -18.6 72 -22 -22 1008.0 1002.7
18 19.03 С 6-10
{12}
10 км слаб. снег 10/0
[As trans]
-15.0 -18.2 76 -25 -25 1006.2 1000.9
21 19.03 С 6-11
{13}
10 км слаб. снег {метель} 10/0
[As op]
-15.6 -18.5 78 -25 -25 1005.8 1000.5 -15.7 0.9 113
00 20.03 С 7-14
{16}
10 км слаб. снег {метель} 10/0
[As op]
-14.4 -17.7 76 -25 -24 1004.9 999.6
03 20.03 С 8-14
{16}
10 км слаб. снег {метель} 10/0
[As op]
-12.4 -16.6 71 -23 -22 1002.4 997.1
06 20.03 С 9-15
{18}
50 км позёмок {снег} 10/8 600 м
[Sc As op]
-13.2 -16.8 74 -24 -24 1001.7 996.4
09 20.03 СВ 8-14
{18}
50 км позёмок 10/8 600 м
[Sc As op]
-13.8 -17.1 76 -24 -24 1004.0 998.7 -11.3 0.9
12 20.03 С 5
{15}
20 км позёмок 10/6 600 м
[Sc As op]
-12.8 -17.5 68 -21 -21 1003.1 997.9
15 20.03 СЗ 3
{12}
20 км {метель} 10/6 600 м
[Sc As op]
-13.9 -16.8 79 -20 -20 1002.8 997.6
18 20.03 Ю 1 50 км {метель} 10/5 600 м
[Sc As op]
-14.2 -16.3 84 -17 -17 1002.6 997.3
21 20.03 Ю 2
{15}
50 км в посл. час снег 10/5 600 м
[Sc As op]
-13.5 -16.3 79 -18 -18 1001.7 996.5 -14.3 0.4 114
00 21.03 Ю 3 50 км {снег} 5/5 1000 м
[Sc]
-9.8 -15.4 64 -16 -13 1000.7 995.5
03 21.03 Ю 3 50 км 5/0
[Ac und]
-7.9 -14.5 59 -13 -11 1001.1 996.0
06 21.03 ЮВ 2 50 км 10/0
[Ac As]
-8.0 -13.0 67 -12 -12 1002.5 997.3
09 21.03 ЮВ 1
{7}
50 км 8/0
[Ac trans]
-9.9 -12.8 79 -12 -12 1005.2 1000.0 -6.9
12 21.03 ЮВ 1 50 км 5 баллов -17.4 -19.3 85 -20 -20 1008.1 1002.7
15 21.03 штиль 0 20 км 9 баллов -15.5 -17.6 84 -16 -16 1009.3 1004.0
18 21.03 ЮВ 1 10 км слаб. снег 10 баллов -12.7 -14.5 86 -15 -15 1012.0 1006.7

 

Местоположение метеостанции Козыревск (Камчатский край, Россия): широта 56.05 долгота 159.80 высота над уровнем моря 40 м.

В архиве по умолчанию представлена погода в Козыревске за последнюю неделю. Архивные данные за месяц целиком и за предыдущие месяцы, начиная с января 2011 года, Вы можете получить, выбрав интересующий диапазон дат из раскрывающегося списка и нажав кнопку "Ввод!".


*Определитесь, кто Вы:
робот инопланетянин человек

Внимание! Время в таблицах - всемирное. Для получения местного времени необходимо прибавить поправку, которая равна 12 ч.

Смотрите также архив погоды в соседних городах и на ближайших метеорологических станциях:

Погода в Ключах (Камчатский край, Россия) (69 км)
Погода в Эссо (Камчатский край, Россия) (70 км)
Погода в Долиновке (Камчатский край, Россия) (115 км)
Погода в Мильково (Камчатский край, Россия) (173 км)
Погода в Усть-Камчатске (Камчатский край, Россия) (181 км)
Погода в Тигиле (Камчатский край, Россия) (203 км)
Погода в Семячике (Камчатский край, Россия) (215 км)
Погода на Мысе Африка (Камчатский край, Россия) (217 км)
Погода в Усть-Хайрюзово (Камчатский край, Россия) (222 км)
Погода в Пущино (Камчатский край, Россия) (237 км)

Пояснения к столбцам:

Ветер - указаны скорость ветра в м/с - средняя за 10 мин, порывы в срок и между сроками (в фигурных скобках) и направление, откуда дует ветер: С - северный, СВ - северо-восточный, В - восточный, ЮВ - юго-восточный, Ю - южный, ЮЗ - юго-западный, З - западный, СЗ - северо-западный.
Видимость - горизонтальная дальность видимости в метрах или километрах. При видимости от 1 до 10 км при отсутствии осадков обычно наблюдается дымка, при ухудшении видимости до 1 км и менее - туман. В сухую погоду видимость может ухудшаться дымом, пылью или мглою.
Явления - указаны атмосферные явления, наблюдавшиеся в срок или в последний час перед сроком; фигурными скобками обозначены явления, наблюдавшиеся между сроками (за 1-3 часа до срока); квадратными скобками обозначены град или гололедные отложения с указанием их диаметра в мм.
Облачность - указаны через наклонную черту общая и нижняя облачность в баллах и высота нижней границы облаков в метрах; квадратными скобками обозначены формы облаков: Ci - перистые, Cs - перисто-слоистые, Cc - перисто-кучевые, Ac - высококучевые, As - высокослоистые, Sc - слоисто-кучевые, Ns - слоисто-дождевые, Cu - кучевые, Cb - кучево-дождевые. Подробнее классификацию облаков см. в Атласе облаков (PDF).
T - Температура воздуха - температура, измеренная на высоте 2 м над землей.
Td - Температура точки росы - температура, при понижении до которой содержащийся в воздухе водяной пар достигнет насыщения.
f - Относительная влажность воздуха - влажноcть воздуха, измеренная на высоте 2 м над землей.
Te - Эффективная температура - температура, которую ощущает одетый по сезону человек в тени. Характеристика душности погоды. При расчете учитывается влияние влажности воздуха и скорости ветра на теплоощущения человека.
Tes - Эффективная температура на солнце - температура, которую ощущает человек, с поправкой на солнечный нагрев. Характеристика знойности погоды. Зависит от высоты солнца над горизонтом, облачности и скорости ветра. Ночью, в пасмурную погоду, а также при ветре 12 м/с и более поправка равна нулю.
P - Атмосферное давление - приведенное к уровню моря атмосферное давление.
Po - Атмосферное давление - измеренное на уровне метеостанции атмосферное давление.
Tmin - Минимальная температура - минимум температуры воздуха на высоте 2 м над землей.
Tmax - Максимальная температура - максимум температуры воздуха на высоте 2 м над землей.
R - Количество осадков - Количество выпавших осадков за период времени, мм. При наведении курсора мыши на число - период времени, за который выпало указанное количество осадков.
R24 - Количество осадков - Количество выпавших осадков за 24 часа, мм.
S - Снежный покров - Высота снежного покрова, см. При наведении курсора мыши на число - состояние снежного покрова и степень покрытия местности в баллах.